Vorticity
nan nan nan nan nan nan nan nan nan nan nan nan nan nan nan nan nan nan nan nan nan nan nan nan nan nan nan nan nan nan nan nan nan nan nan nan nan nan nan nan nan nan nan nan nan nan nan nan nan nan nan nan nan nan nan nan nan nan nan nan nan nan nan nan nan nan nan nan nan
nan 8 8 8 6 5 7 10 10 10 9 9 11 11 9 8 8 9 9 8 9 10 10 11 14 15 15 11 8 8 9 9 9 8 8 8 8 8 7 7 9 9 9 8 6 6 8 8 7 7 7 8 8 8 9 8 8 8 8 7 8 9 10 10 9 10 11 12 nan
nan 7 7 7 5 4 5 8 12 12 9 8 10 10 9 8 9 10 10 11 11 10 9 11 14 14 12 8 7 8 9 10 9 7 7 8 8 8 7 8 9 8 8 7 7 7 8 8 7 7 7 7 7 8 9 9 8 8 9 10 10 9 9 9 10 11 12 12 nan
nan 7 8 9 8 4 2 8 14 11 6 6 9 9 7 8 9 11 12 12 9 8 9 12 12 11 10 9 9 9 10 10 8 7 7 8 9 8 8 8 8 7 7 8 8 8 8 7 6 7 8 7 8 8 8 8 8 8 9 11 10 9 9 8 9 10 10 9 nan
nan 7 8 13 12 5 4 10 13 9 5 6 8 8 7 8 9 10 10 9 9 11 13 12 10 11 12 12 11 10 10 9 6 6 7 9 8 8 8 8 7 7 7 8 8 8 7 6 6 8 8 9 8 8 8 7 8 8 9 9 9 9 9 8 9 9 8 8 nan
nan 9 9 14 13 7 7 13 13 7 4 7 10 8 6 8 11 11 10 10 12 13 12 9 8 11 12 11 9 8 7 6 6 8 9 8 7 8 8 7 7 7 7 8 8 7 7 5 5 8 9 9 9 8 8 7 8 8 8 8 9 9 8 8 8 8 7 6 nan
nan 11 11 14 12 8 10 13 11 8 6 9 12 8 7 9 12 12 9 9 10 10 8 7 9 11 11 9 7 7 7 8 9 9 8 7 8 8 7 7 7 7 7 8 7 7 6 6 6 8 8 8 9 9 9 7 7 7 7 7 8 8 9 9 8 8 7 6 nan
nan 12 12 14 12 11 11 11 8 7 6 10 14 12 9 9 11 9 6 6 8 8 7 10 13 11 10 8 8 8 8 8 8 8 7 8 9 8 7 7 7 7 7 7 7 7 6 6 6 8 8 8 9 10 9 8 6 6 6 7 8 8 8 9 7 7 7 8 nan
nan 12 12 13 13 13 12 11 9 8 8 12 14 13 10 9 8 5 3 5 9 9 8 12 14 11 9 8 8 7 7 8 8 7 7 8 8 7 6 7 7 7 7 8 8 8 5 5 7 7 7 7 7 8 8 8 6 6 6 9 8 7 6 7 6 6 7 9 nan
nan 11 11 11 13 13 12 11 10 10 10 12 12 11 9 8 6 4 3 7 11 10 10 12 13 10 9 7 7 7 7 8 8 8 8 8 8 7 6 7 8 7 7 7 8 8 6 6 7 7 6 6 7 7 8 7 7 6 7 7 7 6 6 6 7 8 9 9 nan
nan 10 9 11 13 12 11 9 8 9 10 12 12 9 8 7 5 5 7 11 13 12 10 11 11 9 7 6 7 7 7 7 9 9 9 9 8 8 7 8 9 8 7 7 7 8 7 7 8 7 6 6 8 8 9 7 7 7 6 5 6 7 8 7 8 10 11 10 nan
nan 9 9 10 12 10 9 6 6 9 11 12 10 8 6 7 8 8 10 12 11 9 9 10 9 7 5 7 9 8 8 9 9 9 9 9 8 8 8 8 9 8 8 7 6 6 8 8 8 8 7 6 7 8 9 8 7 8 7 6 7 8 8 8 8 9 9 9 nan
nan 9 9 10 10 8 6 4 6 9 12 11 8 6 7 10 10 9 10 9 7 7 9 10 8 6 6 8 9 8 9 9 9 8 9 9 8 8 8 8 8 8 8 7 6 6 7 8 8 7 7 7 6 7 8 8 8 8 8 8 8 8 8 8 8 7 7 7 nan
nan 9 9 9 8 5 5 4 5 10 13 10 6 6 8 10 10 9 9 8 7 7 8 8 7 8 9 10 9 9 9 9 9 8 8 8 8 8 7 7 8 7 7 8 8 7 7 7 8 7 7 7 6 7 7 8 8 8 8 8 8 8 8 8 8 8 8 7 nan
nan 9 9 8 6 4 5 4 6 11 12 9 6 7 8 9 10 8 9 9 7 6 7 7 8 10 11 10 9 9 8 8 9 8 8 7 7 7 7 7 8 7 7 8 8 8 8 7 7 8 8 8 8 8 8 8 8 8 8 7 8 8 8 8 8 8 8 8 nan
nan 9 9 8 6 4 4 4 6 11 11 9 8 8 7 8 9 10 10 8 6 7 9 9 8 9 10 10 9 8 7 8 8 7 7 7 7 7 7 7 8 8 7 7 8 8 8 8 8 8 8 8 8 8 8 9 9 9 8 7 8 8 8 7 8 8 8 8 nan
nan 9 9 8 6 5 4 3 6 11 12 11 9 7 7 8 9 11 10 7 6 10 12 9 7 8 9 9 7 7 7 8 8 7 7 8 8 8 8 8 8 8 8 7 7 8 8 7 7 8 8 8 8 8 9 9 9 9 9 8 8 8 8 8 8 8 8 8 nan
nan 9 9 8 7 5 4 5 7 11 12 10 7 7 7 9 10 10 11 9 9 11 11 7 6 8 9 8 6 7 8 9 8 8 8 9 8 8 8 8 8 8 8 7 7 8 8 8 7 8 8 8 8 8 9 9 9 9 9 9 8 8 8 8 8 8 8 8 nan
nan 9 9 8 7 6 6 6 8 10 10 8 8 8 10 10 10 9 10 10 11 10 8 6 6 8 9 8 6 6 8 10 10 8 8 8 8 8 8 9 8 8 8 7 8 8 8 8 8 8 8 8 8 8 8 8 8 8 8 9 9 9 9 9 9 7 7 7 nan
nan 10 9 8 7 7 7 8 9 9 9 9 10 10 10 10 9 9 10 10 10 9 7 6 6 7 8 7 7 6 6 9 11 9 8 8 8 8 9 9 8 8 8 8 8 8 8 8 8 8 8 8 8 8 8 8 8 8 8 9 10 9 9 8 8 7 7 8 nan
nan 10 9 9 9 9 9 9 10 10 9 10 11 10 9 9 9 9 9 9 9 8 8 7 7 7 7 7 7 6 5 8 11 10 9 9 8 8 8 9 8 7 7 8 8 8 8 8 8 8 9 9 10 9 8 7 8 8 8 7 7 8 8 7 7 8 9 10 nan
nan 10 10 10 10 10 10 10 11 10 10 10 10 9 9 9 9 9 8 8 9 8 8 7 7 7 7 7 7 7 6 8 10 9 9 9 9 9 9 9 8 7 7 8 9 10 9 9 9 9 10 11 11 9 7 5 7 8 8 6 6 7 8 8 9 10 11 11 nan
nan 10 9 10 11 11 10 10 10 10 9 9 9 9 8 8 8 8 8 7 8 8 7 7 8 9 8 8 8 8 7 7 9 8 8 8 9 9 8 8 9 8 7 8 9 10 9 11 12 12 12 12 9 8 7 8 10 10 9 7 7 8 9 9 10 10 11 10 nan
nan 7 6 10 13 10 9 9 9 9 9 9 9 8 8 8 7 7 7 7 8 7 6 6 9 10 10 10 10 9 8 8 8 8 8 7 8 8 8 7 8 8 8 9 9 6 4 5 9 12 12 11 8 8 10 14 12 10 7 7 8 9 9 9 9 9 9 9 nan
nan 7 7 10 12 9 9 9 9 9 8 9 9 8 8 7 6 7 7 7 7 7 7 7 9 9 9 10 10 9 9 9 9 8 8 8 7 7 6 7 8 9 9 11 10 4 -1 -4 -2 2 7 8 7 10 14 17 10 6 4 5 7 8 8 9 9 9 9 10 nan
nan 8 8 9 10 9 9 9 8 8 8 9 9 8 7 6 6 7 7 7 7 7 7 8 8 8 9 9 10 9 8 9 10 9 9 9 8 7 5 5 7 9 11 12 10 6 2 -2 -4 -5 -2 2 6 11 14 12 7 5 5 7 8 8 8 8 9 9 10 10 nan
nan 9 8 9 10 9 8 8 8 9 8 9 8 7 6 6 7 8 8 6 6 6 6 7 8 8 8 10 10 9 7 8 10 10 9 9 8 7 4 4 6 8 11 10 8 7 5 4 2 -1 -2 -0 6 9 10 7 8 10 11 11 10 9 8 9 9 10 10 10 nan
nan 9 9 9 9 9 8 8 8 9 8 8 7 7 7 7 8 8 7 6 6 5 5 7 8 7 8 11 12 10 8 8 9 10 10 10 9 7 5 5 7 8 9 8 6 6 5 6 6 5 2 1 7 10 10 9 11 12 13 13 12 11 11 11 11 11 10 10 nan
nan 9 9 9 8 8 8 8 8 8 8 7 7 7 7 8 7 7 6 6 5 4 4 6 7 7 9 11 12 11 10 8 8 9 10 9 8 7 7 6 7 9 10 8 6 5 5 5 6 7 6 4 5 7 9 10 10 11 11 11 11 10 9 9 8 7 8 10 nan
nan 9 9 8 8 7 8 8 8 7 6 7 8 8 7 7 7 7 6 6 5 4 5 7 8 9 9 9 9 10 9 9 8 9 9 8 7 7 7 7 7 10 12 10 6 6 6 6 6 7 7 6 5 6 8 8 8 9 9 9 8 7 7 7 7 6 7 7 nan
nan 9 9 8 7 7 8 8 8 7 5 8 9 8 6 7 7 6 6 6 6 6 8 9 9 9 8 8 8 8 8 8 8 8 8 9 8 7 7 8 7 8 11 10 7 6 6 6 6 7 7 7 8 7 7 7 7 8 8 7 6 6 8 10 10 9 7 5 nan
nan 9 9 8 7 7 8 8 7 7 7 8 8 7 7 7 7 6 7 7 8 9 9 8 8 8 7 7 7 7 7 7 7 7 8 8 8 8 8 9 9 9 10 10 7 7 6 6 6 7 7 7 8 8 7 7 9 10 9 8 8 8 8 8 9 9 8 8 nan
nan 10 9 9 8 7 8 7 7 7 8 7 7 7 7 7 7 7 7 8 10 10 9 8 7 7 7 7 7 7 8 8 8 8 8 7 7 7 7 9 12 12 12 10 8 7 7 6 6 7 7 8 10 10 10 9 10 11 11 10 11 10 9 7 7 8 10 10 nan
nan 10 9 8 8 7 7 7 7 8 8 7 7 7 7 7 7 7 6 7 9 10 9 9 8 8 8 8 8 8 8 8 9 9 9 8 8 8 7 6 9 12 12 10 8 7 7 6 6 6 7 10 12 13 12 10 9 8 8 8 8 8 9 9 10 10 11 10 nan
nan 9 8 8 7 7 7 7 7 8 8 7 7 7 7 7 7 7 7 8 8 8 9 9 9 9 9 9 10 10 9 8 8 9 9 9 9 8 7 5 6 9 10 9 7 7 6 6 6 6 8 12 14 13 13 13 12 10 8 8 8 8 8 10 11 11 12 12 nan
nan 9 8 7 7 7 7 7 7 7 7 7 6 7 6 6 7 8 9 9 8 8 8 8 8 8 8 8 9 10 10 9 9 9 9 9 8 8 7 6 7 9 11 9 7 7 6 6 6 7 9 12 12 12 12 13 14 13 11 10 10 10 11 12 12 11 12 12 nan
nan 9 8 7 7 7 7 7 7 7 7 7 7 7 7 6 7 8 9 9 9 8 8 7 8 7 7 7 8 9 9 10 9 9 9 9 8 8 7 7 8 11 13 12 9 8 7 7 7 7 9 11 9 9 10 12 12 12 13 13 13 13 13 14 15 14 14 12 nan
nan 8 8 7 7 7 7 7 7 7 7 7 7 8 7 7 7 9 9 8 9 9 8 8 7 7 8 8 8 9 9 9 9 9 9 9 9 8 7 7 8 11 13 13 11 9 8 8 7 7 6 6 8 9 10 11 10 10 11 13 14 14 13 12 14 15 15 12 nan
nan 8 8 8 8 8 7 7 7 7 7 7 8 8 7 6 7 9 10 9 9 9 9 8 8 8 9 9 8 9 10 9 10 9 8 9 9 8 7 6 7 9 11 12 11 10 8 8 7 7 5 5 8 10 11 11 10 10 10 10 12 13 13 11 11 13 15 15 nan
nan 8 9 8 8 8 8 7 6 6 7 8 9 8 8 7 8 9 9 9 10 9 9 10 10 9 9 9 9 9 9 9 10 9 9 8 9 9 8 7 6 7 10 12 12 10 9 8 7 7 5 7 9 10 10 10 11 10 9 8 10 12 13 12 11 11 12 14 nan
nan nan nan nan nan nan nan nan nan nan nan nan nan nan nan nan nan nan nan nan nan nan nan nan nan nan nan nan nan nan nan nan nan nan nan nan nan nan nan nan nan nan nan nan nan nan nan nan nan nan nan nan nan nan nan nan nan nan nan nan nan nan nan nan nan nan nan nan nan
CAPE
nan nan nan nan nan nan nan nan nan nan nan nan nan nan nan nan nan nan nan nan nan nan nan nan nan nan nan nan nan nan nan nan nan nan nan nan nan nan nan nan nan nan nan nan nan nan nan nan nan nan nan nan nan nan nan nan nan nan nan nan nan nan nan nan nan nan nan nan nan
nan nan nan nan nan nan nan nan nan nan nan nan nan nan nan nan nan nan nan nan nan nan nan nan nan nan nan nan nan nan nan nan nan nan nan nan nan nan nan nan nan nan nan nan nan nan nan nan nan nan nan nan nan nan nan nan nan nan nan nan nan nan nan nan nan nan nan nan nan
nan nan nan nan nan nan nan nan nan nan nan nan nan nan nan nan nan nan nan nan nan nan nan nan nan nan nan nan nan nan nan nan nan nan nan nan nan nan nan nan nan nan nan nan nan nan nan nan nan nan nan nan nan nan nan nan nan nan nan nan nan nan nan nan nan nan nan nan nan
nan nan nan nan nan nan nan nan nan nan nan nan nan nan nan nan nan nan nan nan nan nan nan nan nan nan nan nan nan nan nan nan nan nan nan nan nan nan nan nan nan nan nan nan nan nan nan nan nan nan nan nan nan nan nan nan nan nan nan nan nan nan nan nan nan nan nan nan nan
nan nan nan nan nan nan nan nan nan nan nan nan nan nan nan nan nan nan nan nan nan nan nan nan nan nan nan nan nan nan nan nan nan nan nan nan nan nan nan nan nan nan nan nan nan nan nan nan nan nan nan nan nan nan nan nan nan nan nan nan nan nan nan nan nan nan nan nan nan
nan nan nan nan nan nan nan nan nan nan nan nan nan nan nan nan nan nan nan nan nan nan nan nan nan nan nan nan nan nan nan nan nan nan nan nan nan nan nan nan nan nan nan nan nan nan nan nan nan nan nan nan nan nan nan nan nan nan nan nan nan nan nan nan nan nan nan nan nan
nan nan nan nan nan nan nan nan nan nan nan nan nan nan nan nan nan nan nan nan nan nan nan nan nan nan nan nan nan nan nan nan nan nan nan nan nan nan nan nan nan nan nan nan nan nan nan nan nan nan nan nan nan nan nan nan nan nan nan nan nan nan nan nan nan nan nan nan nan
nan nan nan nan nan nan nan nan nan nan nan nan nan nan nan nan nan nan nan nan nan nan nan nan nan nan nan nan nan nan nan nan nan nan nan nan nan nan nan nan nan nan nan nan nan nan nan nan nan nan nan nan nan nan nan nan nan nan nan nan nan nan nan nan nan nan nan nan nan
nan nan nan nan nan nan nan nan nan nan nan nan nan nan nan nan nan nan nan nan nan nan nan nan nan nan nan nan nan nan nan nan nan nan nan nan nan nan nan nan nan nan nan nan nan nan nan nan nan nan nan nan nan nan nan nan nan nan nan nan nan nan nan nan nan nan nan nan nan
nan nan nan nan nan nan nan nan nan nan nan nan nan nan nan nan nan nan nan nan nan nan nan nan nan nan nan nan nan nan nan nan nan nan nan nan nan nan nan nan nan nan nan nan nan nan nan nan nan nan nan nan nan nan nan nan nan nan nan nan nan nan nan nan nan nan nan nan nan
nan nan nan nan nan nan nan nan nan nan nan nan nan nan nan nan nan nan nan nan nan nan nan nan nan nan nan nan nan nan nan nan nan nan nan nan nan nan nan nan nan nan nan nan nan nan nan nan nan nan nan nan nan nan nan nan nan nan nan nan nan nan nan nan nan nan nan nan nan
nan nan nan nan nan nan nan nan nan nan nan nan nan nan nan nan nan nan nan nan nan nan nan nan nan nan nan nan nan nan nan nan nan nan nan nan nan nan nan nan nan nan nan nan nan nan nan nan nan nan nan nan nan nan nan nan nan nan nan nan nan nan nan nan nan nan nan nan 0
nan nan nan nan nan nan nan nan nan nan nan nan nan nan nan nan nan nan nan nan nan nan nan nan nan nan nan nan nan nan nan nan nan nan nan nan nan nan nan nan nan nan nan nan nan nan nan nan nan nan nan nan nan nan nan nan nan nan nan nan nan nan nan nan nan nan nan nan 1
nan nan nan nan nan nan nan nan nan nan nan nan nan nan nan nan nan nan nan nan nan nan nan nan nan nan nan nan nan nan nan nan nan nan nan nan nan nan nan nan nan nan nan nan nan nan nan nan nan nan nan nan nan nan nan nan nan nan nan nan nan nan nan nan nan nan nan 1 3
nan nan nan nan nan nan nan nan nan nan nan nan nan nan nan nan nan nan nan nan nan nan nan nan nan nan nan nan nan nan nan nan nan nan nan nan nan nan nan nan nan nan nan nan nan nan nan nan nan nan nan nan nan nan nan nan nan nan nan nan nan nan nan nan nan nan 0 5 7
nan nan nan nan nan nan nan nan nan nan nan nan nan nan nan nan nan nan nan nan nan nan nan nan nan nan nan nan nan nan nan nan nan nan nan nan nan nan nan nan nan nan nan nan nan nan nan nan nan nan nan nan nan nan nan nan nan nan nan nan 0 nan nan 0 1 1 4 6 5
nan nan nan nan nan nan nan nan nan nan nan nan nan nan nan nan nan nan nan nan nan nan nan nan nan nan nan nan nan nan nan nan nan nan nan nan nan nan nan nan nan nan nan nan nan nan nan nan nan nan nan nan nan nan nan nan nan nan nan 0 0 1 1 3 5 5 6 8 5
nan nan nan nan nan nan nan nan nan nan nan nan nan nan nan nan nan nan nan nan nan nan nan nan nan nan nan nan nan nan nan nan nan nan nan nan nan nan nan nan nan nan nan nan nan nan nan nan nan nan nan nan nan nan nan nan 0 0 0 0 2 4 4 4 4 4 5 7 9
nan nan nan nan nan nan nan nan nan nan nan nan nan nan nan nan nan nan nan nan nan nan nan nan nan nan nan nan nan nan nan nan nan nan nan nan nan nan nan nan nan nan nan nan nan nan nan nan nan nan nan nan nan nan nan 0 nan 0 0 1 2 3 3 4 5 5 4 8 12
nan nan nan nan nan nan nan nan nan nan nan nan nan nan nan nan nan nan nan nan nan nan nan nan nan nan nan nan nan nan nan nan nan nan nan nan nan nan nan nan nan nan nan nan nan nan nan nan nan nan nan nan nan nan nan nan nan nan nan 1 1 2 2 4 5 5 6 9 13
nan nan nan nan nan nan nan nan nan nan nan nan nan nan nan nan nan nan nan nan nan nan nan nan nan nan nan nan nan nan nan nan nan nan nan nan nan nan nan nan nan nan nan nan nan nan nan nan nan nan nan nan nan nan nan nan nan nan nan nan nan 2 2 2 2 2 5 9 13
nan nan nan nan nan nan nan nan nan nan nan nan nan nan nan nan nan nan nan nan nan nan nan nan nan nan nan nan nan nan nan nan nan nan nan nan nan nan nan nan nan nan nan nan nan nan nan nan nan nan nan nan nan nan nan nan nan nan nan nan nan 1 1 0 0 0 2 6 11
nan nan nan nan nan nan nan nan nan nan nan nan nan nan nan nan nan nan nan nan nan nan nan nan nan nan nan nan nan nan nan nan nan nan nan nan nan nan nan nan nan nan nan nan nan nan nan nan nan nan nan nan nan nan nan nan nan nan nan nan nan nan nan nan 0 0 2 2 2
nan nan nan nan nan nan nan nan nan nan nan nan nan nan nan nan nan nan nan nan nan nan nan nan nan nan nan nan nan nan nan nan nan nan nan nan nan nan nan nan nan nan nan nan nan nan nan nan nan nan nan nan nan nan nan nan nan nan nan nan nan nan nan nan nan nan nan 0 nan
nan nan nan nan nan nan nan nan nan nan nan nan nan nan nan nan nan nan nan nan nan nan nan nan nan nan nan nan nan nan nan nan nan nan nan nan nan nan nan nan nan nan nan nan nan nan nan nan nan nan nan nan nan nan nan nan nan nan nan nan nan nan nan nan nan nan nan nan 0
nan nan nan nan nan nan nan nan nan nan nan nan nan nan nan nan nan nan nan nan nan nan nan nan nan nan nan nan nan nan nan nan nan nan nan nan nan nan nan nan nan nan nan nan nan nan nan nan nan nan nan 0 0 nan nan nan nan nan nan 0 nan nan nan nan nan nan nan nan nan
nan nan nan nan nan nan nan nan nan nan nan nan nan nan nan nan nan nan nan nan nan nan nan nan nan nan nan nan nan nan nan nan nan nan nan nan nan nan nan nan nan nan nan nan nan nan nan nan nan nan nan 0 3 1 1 1 8 9 9 10 6 1 1 nan nan nan nan nan nan
nan nan nan nan nan nan nan nan nan nan nan nan nan nan nan nan nan nan nan nan nan nan nan nan nan nan nan nan nan nan nan nan nan nan nan nan nan nan nan nan nan nan nan nan nan nan nan nan nan nan nan nan 1 2 2 3 5 5 5 5 2 1 1 nan nan nan nan nan nan
nan nan nan nan nan nan nan nan nan nan nan nan nan nan nan nan nan nan nan nan nan nan nan nan nan nan nan nan nan nan nan nan nan nan nan nan nan nan nan nan nan nan nan nan nan nan nan nan nan nan nan nan nan 0 0 3 4 nan nan nan nan nan nan nan nan nan nan nan nan
nan nan nan nan nan nan nan nan nan nan nan nan nan nan nan nan nan nan nan nan nan nan nan nan nan nan nan nan nan nan nan nan nan nan nan nan nan nan nan nan nan nan nan nan nan nan nan nan nan nan nan nan nan 3 3 2 0 nan nan nan nan nan nan nan nan nan nan nan nan
nan nan nan nan nan nan nan nan nan nan nan nan nan nan nan nan nan nan nan nan nan nan nan nan nan nan nan nan nan nan nan nan nan nan nan nan nan nan nan nan nan nan nan nan nan nan nan nan nan nan nan nan nan 1 1 nan nan nan nan nan nan nan nan nan nan nan nan nan nan
nan nan nan nan nan nan nan nan nan nan nan nan nan nan nan nan nan nan nan nan nan nan nan nan nan nan nan nan nan nan nan nan nan nan nan nan nan nan nan nan nan nan nan nan nan nan nan nan nan nan nan nan nan 0 0 nan nan nan nan nan nan nan nan nan nan nan nan nan nan
nan nan nan nan nan nan nan nan nan nan nan nan nan nan nan nan nan nan nan nan nan nan nan nan nan nan nan nan nan nan nan nan nan nan nan nan nan nan nan nan nan nan nan nan nan nan nan nan nan nan nan nan nan nan nan nan nan nan nan nan nan nan nan nan nan nan nan nan nan
nan nan nan nan nan nan nan nan nan nan nan nan nan nan nan nan nan nan nan nan nan nan nan nan nan nan nan nan nan nan nan nan nan nan nan nan nan nan nan nan nan nan nan nan nan nan nan nan nan nan nan nan nan nan nan nan nan nan nan nan nan nan nan nan nan nan nan 0 nan
nan nan nan nan nan nan nan nan nan nan nan nan nan nan nan nan nan nan nan nan nan nan nan nan nan nan nan nan nan nan nan nan nan nan nan nan nan nan nan nan nan nan nan nan nan nan nan nan nan nan nan nan nan nan nan nan nan nan nan nan nan nan nan nan nan nan nan 1 0
nan nan nan nan nan nan nan nan nan nan nan nan nan nan nan nan nan nan nan nan nan nan nan nan nan nan nan nan nan nan nan nan nan nan nan nan nan nan nan nan nan nan nan nan nan nan nan nan nan nan nan nan nan nan nan nan nan nan nan nan nan nan nan nan 0 0 0 2 2
nan nan nan nan nan nan nan nan nan nan nan nan nan nan nan nan nan nan nan nan nan nan nan nan nan nan nan nan nan nan nan nan nan nan nan nan nan nan nan nan nan nan nan nan nan nan nan nan nan nan nan nan nan nan nan nan nan nan nan nan nan nan nan nan 0 0 2 2 5
nan nan nan nan nan nan nan nan nan nan nan nan nan nan nan nan nan nan nan nan nan nan nan nan nan nan nan nan nan nan nan nan nan nan nan nan nan nan nan nan nan nan nan nan nan nan nan nan nan nan nan nan nan nan nan nan nan nan nan nan nan nan nan nan nan nan 2 1 2
nan nan nan nan nan nan nan nan nan nan nan nan nan nan nan nan nan nan nan nan nan nan nan nan nan nan nan nan nan nan nan nan nan nan nan nan nan nan nan nan nan nan nan nan nan nan nan nan nan nan nan nan nan nan nan nan nan nan nan nan nan nan nan nan nan nan 1 4 2
nan nan nan nan nan nan nan nan nan nan nan nan nan nan nan nan nan nan nan nan nan nan nan nan nan nan nan nan nan nan nan nan nan nan nan nan nan nan nan nan nan nan nan nan nan nan nan nan nan nan nan nan nan nan nan nan nan nan nan nan nan nan nan nan 0 0 0 4 3
nan nan nan nan nan nan nan nan nan nan nan nan nan nan nan nan nan nan nan nan nan nan nan nan nan nan nan nan nan nan nan nan nan nan nan nan nan nan nan nan nan nan nan nan nan nan nan nan nan nan nan nan nan nan nan nan nan nan nan nan nan nan nan nan 0 0 0 0 2